CDT,Max TemperatureF,Mean TemperatureF,Min TemperatureF,Max Dew PointF,MeanDew PointF,Min DewpointF,Max Humidity, Mean Humidity, Min Humidity, Max Sea Level PressureIn, Mean Sea Level PressureIn, Min Sea Level PressureIn, Max VisibilityMiles, Mean VisibilityMiles, Min VisibilityMiles, Max Wind SpeedMPH, Mean Wind SpeedMPH, Max Gust SpeedMPH,PrecipitationIn, CloudCover, Events, WindDirDegrees
2013-5-1,65,53,41,49,42,34,76,64,52,30.25,30.08,29.83,10,10,10,37,19,46,0.00,5,,20
2013-5-2,42,38,33,36,32,30,92,81,70,30.42,30.34,30.23,10,4,0,36,19,47,1.56,8,Fog-Rain-Snow-Thunderstorm,2
2013-5-3,34,34,33,31,30,30,89,89,89,30.30,30.12,29.91,10,4,0,25,17,33,0.22,8,Fog-Rain-Snow,358
2013-5-4,54,44,34,48,40,31,100,89,77,30.08,29.95,29.82,10,6,0,23,12,30,0.03,8,Fog-Rain-Snow,8
2013-5-5,58,51,43,52,46,42,100,89,77,30.12,30.08,30.04,10,5,0,17,10,22,0.00,8,Fog,350
2013-5-6,73,61,48,55,49,46,100,71,41,30.12,30.07,30.01,10,5,0,13,5,17,0.00,4,Fog,338
2013-5-7,75,63,51,52,49,47,89,65,41,30.07,30.03,29.98,10,10,7,7,4,7,0.00,0,,247
2013-5-8,73,65,56,55,52,47,78,66,53,30.02,29.97,29.91,10,10,10,14,6,17,T,4,Rain,159
2013-5-9,67,62,56,61,57,53,93,83,72,29.92,29.88,29.84,10,8,2,21,6,25,0.41,7,Rain-Thunderstorm,312
2013-5-10,67,59,50,54,49,46,93,73,52,30.04,29.99,29.92,10,9,4,16,9,22,0.00,6,,348
2013-5-11,59,50,41,44,32,23,80,54,27,30.24,30.14,30.01,10,10,10,32,15,41,0.00,1,,325
2013-5-12,61,48,35,30,26,22,64,46,27,30.29,30.22,30.15,10,10,10,18,7,21,0.00,0,,314
2013-5-13,75,60,45,52,40,26,67,51,35,30.16,30.06,29.90,10,10,10,20,10,28,0.00,0,,181
2013-5-14,89,72,55,61,54,48,86,59,32,29.87,29.77,29.68,10,10,7,23,12,28,0.00,0,,207
2013-5-15,79,72,65,55,52,49,67,52,36,29.89,29.83,29.77,10,10,9,17,8,23,0.00,0,,55
2013-5-16,81,72,62,66,60,54,90,71,51,29.92,29.86,29.79,10,9,5,13,6,16,0.00,3,,168
2013-5-17,76,68,59,61,59,57,97,79,61,29.95,29.91,29.86,10,10,10,13,6,16,0.00,2,,159
2013-5-18,83,72,61,64,61,58,90,71,51,29.93,29.87,29.75,10,10,10,16,8,23,0.00,2,,139
2013-5-19,83,72,60,67,61,57,93,72,51,29.85,29.70,29.56,10,9,1,32,11,40,0.50,5,Rain-Thunderstorm,179
2013-5-20,78,69,60,65,59,54,97,76,54,29.70,29.62,29.56,10,10,10,22,14,30,0.00,2,Thunderstorm,203
2013-5-21,72,64,56,54,51,47,80,62,44,29.71,29.67,29.60,10,10,10,23,13,30,0.00,2,,239
2013-5-22,63,58,53,52,50,48,93,79,64,29.92,29.79,29.68,10,10,6,23,12,28,T,8,Rain,283
2013-5-23,70,60,50,52,49,44,89,67,44,30.26,30.09,29.93,10,10,4,18,9,26,T,6,Rain,359
2013-5-24,70,59,47,51,45,42,86,64,42,30.36,30.27,30.16,10,10,10,18,9,25,T,1,,125
2013-5-25,69,61,53,59,50,41,86,72,57,30.21,30.13,30.06,10,10,8,21,10,29,0.03,5,Rain-Thunderstorm,122
2013-5-26,78,66,54,67,58,51,93,81,69,30.10,30.01,29.91,10,9,2,24,9,31,0.28,6,Rain-Thunderstorm,112
2013-5-27,75,67,59,63,59,55,97,81,64,29.99,29.83,29.68,10,8,2,32,8,43,1.53,6,Rain-Thunderstorm,108
2013-5-28,82,72,62,72,65,56,93,81,69,29.83,29.72,29.60,10,8,2,23,11,31,1.67,6,Rain-Thunderstorm,197
2013-5-29,82,72,61,70,63,58,97,78,58,29.85,29.75,29.66,10,10,8,25,14,37,0.10,5,Rain-Thunderstorm,171
2013-5-30,73,67,61,64,61,59,93,83,73,29.72,29.66,29.58,10,9,2,24,12,37,0.42,5,Rain-Thunderstorm,174
2013-5-31,74,68,61,64,61,58,97,83,68,29.78,29.71,29.64,10,9,2,20,10,26,0.10,5,Rain-Thunderstorm,177